This is the latest recevied weather packets stored in our database for station/object W9WRP. If no packets are shown the sender has not sent any weather packets the latest 10 day(s).
| Time | Temp. | Humidity | Pressure | Rain* | Wind** | Luminosity | Snow |
|---|---|---|---|---|---|---|---|
| 1787623496 | 38.33° C | 24% | 1013.8 hPa | 0 mm | - | 3 W/m² | - |
| 1787623195 | 38.89° C | 24% | 1013.7 hPa | 0 mm | - | 5 W/m² | - |
| 1787622891 | 38.89° C | 23% | 1013.9 hPa | 0 mm | - | 7 W/m² | - |
| 1787622587 | 38.89° C | 23% | 1013.8 hPa | 0 mm | - | 9 W/m² | - |
| 1787622283 | 38.89° C | 22% | 1013.6 hPa | 0 mm | - | 10 W/m² | - |
| 1787621978 | 38.89° C | 22% | 1013.7 hPa | 0 mm | - | 11 W/m² | - |
| 1787621678 | 39.44° C | 22% | 1013.6 hPa | 0 mm | - | 12 W/m² | - |
| 1787621374 | 39.44° C | 22% | 1013.5 hPa | 0 mm | - | 14 W/m² | - |
| 1787621070 | 40° C | 22% | 1013.6 hPa | 0 mm | - | 19 W/m² | - |
| 1787620765 | 40° C | 22% | 1013.7 hPa | 0 mm | - | 25 W/m² | - |
| 1787620461 | 40.56° C | 21% | 1013.6 hPa | 0 mm | - | 33 W/m² | - |
| 1787620156 | 40.56° C | 21% | 1013.6 hPa | 0 mm | - | 40 W/m² | - |
| 1787619851 | 41.11° C | 20% | 1013.7 hPa | 0 mm | - | 57 W/m² | - |
| 1787619551 | 41.11° C | 20% | 1013.7 hPa | 0 mm | - | 65 W/m² | - |
| 1787619246 | 40.56° C | 20% | 1013.6 hPa | 0 mm | - | 79 W/m² | - |
| 1787618941 | 41.11° C | 20% | 1013.5 hPa | 0 mm | - | 77 W/m² | - |
| 1787618637 | 41.67° C | 19% | 1013.6 hPa | 0 mm | - | 80 W/m² | - |
| 1787618334 | 41.67° C | 19% | 1013.7 hPa | 0 mm | - | 105 W/m² | - |
| 1787618030 | 42.22° C | 18% | 1013.7 hPa | 0 mm | - | 121 W/m² | - |
| 1787617730 | 42.22° C | 17% | 1013.5 hPa | 0 mm | - | 120 W/m² | - |
| 1787617424 | 41.67° C | 17% | 1013.6 hPa | 0 mm | - | 137 W/m² | - |
| 1787617118 | 41.11° C | 18% | 1013.6 hPa | 0 mm | - | 158 W/m² | - |
| 1787616813 | 42.78° C | 17% | 1013.8 hPa | 0 mm | - | 174 W/m² | - |
| 1787616507 | 42.22° C | 17% | 1013.5 hPa | 0 mm | - | 185 W/m² | - |
| 1787616201 | 42.22° C | 17% | 1013.6 hPa | 0 mm | - | 198 W/m² | - |
* Rain latest hour (hover to see other rain measurements)
** Current wind speed in m/s (hover to see current wind gust speed)